Other Surface Observations
Issued by NWS

Home | Current Version | Previous Version | Text Only | Print | Product List | Glossary On
Versions: 1 2 3 4 5 6 7 8 9 10 11 12 13 14 15 16 17 18 19 20 21 22 23 24 25 26 27 28 29 30 31 32 33 34 35 36 37 38 39 40 41 42 43 44 45 46 47 48 49 50
298
SXUS52 KTAE 250918
OSOTAE
OSOTAE
North Florida/South Alabama/Southwest Georgia Weather Roundup
National Weather Service Tallahassee Florida
400 AM EST SAT FEB 25 2017

Note: "fair" indicates few or no clouds below 12,000 feet with no
significant weather and/or obstructions to visibility.

!FLZ017-115-028-034-025-251000
...North Florida...

CITY           SKY/WX    TMP DP  RH WIND       PRES   REMARKS
TALLAHASSEE    CLOUDY    63  63 100 W6        29.84R
APALACHICOLA   CLEAR     63  63 100 W5        29.83S
PERRY          CLOUDY    65  64  97 W5        29.84R
CROSS CITY     CLOUDY    63  61  94 CALM      29.82S FOG
JACKSONVILLE   FOG       60  60 100 CALM      29.81R VSB 1/4
$$

!FLZ112-006-005-002-011-251000
...Florida Panhandle...

CITY           SKY/WX    TMP DP  RH WIND       PRES   REMARKS
MARIANNA       CLOUDY    65  64  97 W7        29.83S
BONIFAY        CLOUDY    65  65 100 SW5       29.84F
PANAMA CITY NW FOG       61  59  93 CALM      29.83S VSB 3/4
TYNDALL AFB    CLEAR     66  65  97 W6        29.84S
TYND DRONE APT PTSUNNY   66  66 100 W3        29.84S
DE FUNIAK SPR  CLOUDY    64  64 100 SW6       29.84S FOG
EGLIN AFB      LGT RAIN  62  62  99 SW6       29.83S FOG
DESTIN         PTCLDY    70  70 100 SW5       29.83F
HURLBURT       PTCLDY    68  61  77 W7        29.82S
CRESTVIEW      CLOUDY    66  64  93 W3        29.84F
PENSACOLA      CLEAR     68  64  87 W7        29.84S
$$

!ALZ063-066-251000
...South Alabama...

CITY           SKY/WX    TMP DP  RH WIND       PRES   REMARKS
DOTHAN         CLOUDY    64  64 100 W10       29.86F
OZARK CAIRNS   CLOUDY    65  65 100 SW8       29.82F
FT RUCKER HELI CLOUDY    65  63  93 SW6       29.82F
RUCKER HELI 3  CLOUDY    64  63  94 SE6       29.82F
RUCKER HELI 2  CLOUDY    65  63  93 CALM      29.81F
FLORALA APT    CLOUDY    66  63  90 VRB3      29.85S
ANDALUSIA      MOCLDY    67  63  87 SW5       29.82F
TROY           MOCLDY    64  63  96 SW6       29.82F
EUFALA         CLOUDY    62  60  93 SW5       29.80F
MOBILE         PTCLDY    65  63  93 W5        29.86S
$$

!GAZ120>161-251000
...Southwest and South Central Georgia...

CITY           SKY/WX    TMP DP  RH WIND       PRES   REMARKS
THOMASVILLE    FAIR      59  59 100 SE3       29.84R
BAINBRIDGE     CLOUDY    63  61  94 W7        29.84S
MOODY AFB      MOCLDY    64  60  85 W5        29.81R
VALDOSTA       CLOUDY    63  61  93 CALM      29.82S
MOULTRIE       PTCLDY    59  57  94 CALM      29.83S
BLAKELY        CLOUDY    64  63  94 CALM      29.84S
ALBANY         CLEAR     61  59  93 W5        29.84R
TIFTON         MOCLDY    63  62  96 CALM      29.82S
FITZGERALD     PTSUNNY   63  62  98 CALM      29.85R
CORDELE        PTSUNNY   65  60  84 W5        29.83S
AMERICUS       PTSUNNY   63  55  77 W8        29.82F
HOMERVILLE     FAIR      63  63 100 CALM      29.82S
$$

!GMZ750-755-770-775-251000
...Coastal and Buoy Obs...

STATION/POSITION TIME  TEMP    WIND        PRES    VSBY  WAVE
                       AIR SEA DIR/SP/G                  HT/PER
                 (UTC) (F)     (DEG/KT/KT) (MB)    (MI)  (FT/S)
KEATON BEACH     0900   67     240/ 11/ 12 1009.8R
CEDAR KEY        0900   63     200/  6/ 10 1010.4F
C TOWER          0900   67     280/ 11/ 11 1011.0R
APALACHICOLA BUO 0850   69 70  230/  8/  8 1009.7F         1
PANAMA CITY BUOY 0850   71 71              1010.8R         1/ 4
MOBILE BUOY      NOT AVBL
ORANGE BCH AL BU 0850   70 69  270/ 14/ 16 1010.5F         2/ 3
$$




USA.gov is the U.S. government's official web portal to all federal, state and local government web resources and services.